Time,TemperatureF,DewpointF,PressureIn,WindDirection,WindDirectionDegrees,WindSpeedMPH,WindSpeedGustMPH,Humidity,HourlyPrecipIn,Conditions,Clouds,dailyrainin,SoftwareType,DateUTC
2013-05-16 00:03:00,64.0,30.0,-100.00,WSW,257,9.0,20.0,28,-99.99,,,-99.99,,2013-05-16 00:03:00,
2013-05-16 00:16:00,63.0,32.0,-100.00,WNW,288,5.0,15.0,31,-99.99,,,-99.99,,2013-05-16 00:16:00,
2013-05-16 00:23:00,63.0,32.0,-100.00,West,275,6.0,12.0,31,-99.99,,,-99.99,,2013-05-16 00:23:00,
2013-05-16 00:57:00,61.0,32.0,-100.00,West,277,6.0,14.0,34,-99.99,,,-99.99,,2013-05-16 00:57:00,
2013-05-16 01:05:00,61.0,29.0,-100.00,West,281,5.0,11.0,30,-99.99,,,-99.99,,2013-05-16 01:05:00,
2013-05-16 01:14:00,61.0,29.0,-100.00,WNW,282,5.0,11.0,30,-99.99,,,-99.99,,2013-05-16 01:14:00,
2013-05-16 01:25:00,60.0,29.0,-100.00,WNW,284,5.0,13.0,31,-99.99,,,-99.99,,2013-05-16 01:25:00,
2013-05-16 01:34:00,61.0,29.0,-100.00,WNW,295,4.0,16.0,29,-99.99,,,-99.99,,2013-05-16 01:34:00,
2013-05-16 01:45:00,61.0,33.0,-100.00,WNW,296,3.0,5.0,35,-99.99,,,-99.99,,2013-05-16 01:45:00,
2013-05-16 01:54:00,61.0,31.0,-100.00,WNW,294,3.0,7.0,32,-99.99,,,-99.99,,2013-05-16 01:54:00,
2013-05-16 02:13:00,60.0,30.0,-100.00,WNW,282,4.0,11.0,32,-99.99,,,-99.99,,2013-05-16 02:13:00,
2013-05-16 02:26:00,60.0,29.0,-100.00,West,261,6.0,13.0,31,-99.99,,,-99.99,,2013-05-16 02:26:00,
2013-05-16 02:36:00,58.0,33.0,-100.00,West,271,5.0,11.0,38,-99.99,,,-99.99,,2013-05-16 02:36:00,
2013-05-16 02:44:00,58.0,33.0,-100.00,West,271,5.0,11.0,38,-99.99,,,-99.99,,2013-05-16 02:44:00,
2013-05-16 02:52:00,58.0,33.0,-100.00,West,271,5.0,11.0,38,-99.99,,,-99.99,,2013-05-16 02:52:00,
2013-05-16 03:03:00,57.0,34.0,-100.00,WNW,282,5.0,7.0,42,-99.99,,,-99.99,,2013-05-16 03:03:00,
2013-05-16 03:14:00,56.0,31.0,-100.00,WNW,282,4.0,6.0,39,-99.99,,,-99.99,,2013-05-16 03:14:00,
2013-05-16 03:24:00,56.0,34.0,-100.00,WNW,282,4.0,6.0,44,-99.99,,,-99.99,,2013-05-16 03:24:00,
2013-05-16 03:33:00,56.0,34.0,-100.00,WNW,282,4.0,6.0,44,-99.99,,,-99.99,,2013-05-16 03:33:00,
2013-05-16 04:02:00,55.0,34.0,-100.00,West,275,4.0,8.0,45,-99.99,,,-99.99,,2013-05-16 04:02:00,
2013-05-16 04:12:00,54.0,35.0,-100.00,West,274,3.0,5.0,48,-99.99,,,-99.99,,2013-05-16 04:12:00,
2013-05-16 04:23:00,53.0,34.0,-100.00,West,263,2.0,6.0,49,-99.99,,,-99.99,,2013-05-16 04:23:00,
2013-05-16 04:33:00,53.0,33.0,-100.00,WSW,251,2.0,8.0,46,-99.99,,,-99.99,,2013-05-16 04:33:00,
2013-05-16 04:42:00,53.0,34.0,-100.00,WSW,244,2.0,6.0,49,-99.99,,,-99.99,,2013-05-16 04:42:00,
2013-05-16 04:52:00,52.0,33.0,-100.00,WSW,246,3.0,6.0,49,-99.99,,,-99.99,,2013-05-16 04:52:00,
2013-05-16 05:02:00,52.0,33.0,-100.00,WSW,237,3.0,5.0,48,-99.99,,,-99.99,,2013-05-16 05:02:00,
2013-05-16 05:12:00,50.0,35.0,-100.00,SW,223,2.0,5.0,56,-99.99,,,-99.99,,2013-05-16 05:12:00,
2013-05-16 05:22:00,50.0,34.0,-100.00,SW,224,0.0,3.0,55,-99.99,,,-99.99,,2013-05-16 05:22:00,
2013-05-16 05:32:00,48.0,34.0,-100.00,NW,323,1.0,2.0,58,-99.99,,,-99.99,,2013-05-16 05:32:00,
2013-05-16 05:42:00,48.0,34.0,-100.00,NW,323,1.0,2.0,58,-99.99,,,-99.99,,2013-05-16 05:42:00,
2013-05-16 05:52:00,48.0,34.0,-100.00,NW,323,1.0,2.0,58,-99.99,,,-99.99,,2013-05-16 05:52:00,
2013-05-16 06:01:00,48.0,34.0,-100.00,NW,323,1.0,2.0,58,-99.99,,,-99.99,,2013-05-16 06:01:00,
2013-05-16 06:12:00,48.0,34.0,-100.00,NW,323,1.0,2.0,58,-99.99,,,-99.99,,2013-05-16 06:12:00,
2013-05-16 08:03:00,46.0,29.0,-100.00,ESE,116,2.0,3.0,51,-99.99,,,-99.99,,2013-05-16 08:03:00,
2013-05-16 08:13:00,46.0,28.0,-100.00,North,-999,0.0,0.0,50,-99.99,,,-99.99,,2013-05-16 08:13:00,
2013-05-16 08:23:00,45.0,27.0,-100.00,SE,134,3.0,4.0,50,-99.99,,,-99.99,,2013-05-16 08:23:00,
2013-05-16 08:34:00,46.0,28.0,-100.00,SSE,152,1.0,3.0,50,-99.99,,,-99.99,,2013-05-16 08:34:00,
2013-05-16 08:44:00,45.0,28.0,-100.00,SE,130,3.0,5.0,51,-99.99,,,-99.99,,2013-05-16 08:44:00,
2013-05-16 08:54:00,45.0,28.0,-100.00,SE,130,3.0,5.0,51,-99.99,,,-99.99,,2013-05-16 08:54:00,
2013-05-16 09:04:00,45.0,28.0,-100.00,SE,130,3.0,5.0,51,-99.99,,,-99.99,,2013-05-16 09:04:00,
2013-05-16 09:24:00,44.0,28.0,-100.00,East,85,3.0,4.0,53,-99.99,,,-99.99,,2013-05-16 09:24:00,
2013-05-16 09:35:00,44.0,28.0,-100.00,East,99,3.0,4.0,53,-99.99,,,-99.99,,2013-05-16 09:35:00,
2013-05-16 09:45:00,44.0,26.0,-100.00,East,93,2.0,5.0,49,-99.99,,,-99.99,,2013-05-16 09:45:00,
2013-05-16 09:55:00,45.0,27.0,-100.00,East,93,3.0,4.0,50,-99.99,,,-99.99,,2013-05-16 09:55:00,
2013-05-16 10:04:00,45.0,27.0,-100.00,ENE,72,3.0,4.0,48,-99.99,,,-99.99,,2013-05-16 10:04:00,
2013-05-16 10:14:00,45.0,28.0,-100.00,ENE,76,4.0,6.0,51,-99.99,,,-99.99,,2013-05-16 10:14:00,
2013-05-16 10:24:00,44.0,27.0,-100.00,East,80,3.0,4.0,50,-99.99,,,-99.99,,2013-05-16 10:24:00,
2013-05-16 10:35:00,44.0,27.0,-100.00,ENE,76,3.0,5.0,50,-99.99,,,-99.99,,2013-05-16 10:35:00,
2013-05-16 10:45:00,44.0,27.0,-100.00,East,97,1.0,3.0,51,-99.99,,,-99.99,,2013-05-16 10:45:00,
2013-05-16 10:56:00,44.0,28.0,-100.00,East,97,3.0,4.0,52,-99.99,,,-99.99,,2013-05-16 10:56:00,
2013-05-16 11:05:00,44.0,28.0,-100.00,East,95,2.0,3.0,53,-99.99,,,-99.99,,2013-05-16 11:05:00,
2013-05-16 11:14:00,44.0,28.0,-100.00,ENE,69,4.0,6.0,53,-99.99,,,-99.99,,2013-05-16 11:14:00,
2013-05-16 11:25:00,46.0,28.0,-100.00,ENE,58,4.0,7.0,49,-99.99,,,-99.99,,2013-05-16 11:25:00,
2013-05-16 11:35:00,46.0,28.0,-100.00,NE,52,6.0,9.0,49,-99.99,,,-99.99,,2013-05-16 11:35:00,
2013-05-16 11:46:00,46.0,28.0,-100.00,NE,51,4.0,8.0,49,-99.99,,,-99.99,,2013-05-16 11:46:00,
2013-05-16 11:56:00,46.0,29.0,-100.00,North,11,2.0,4.0,52,-99.99,,,-99.99,,2013-05-16 11:56:00,
2013-05-16 12:06:00,45.0,28.0,-100.00,NE,34,3.0,6.0,52,-99.99,,,-99.99,,2013-05-16 12:06:00,
2013-05-16 12:13:00,45.0,29.0,-100.00,East,79,2.0,3.0,54,-99.99,,,-99.99,,2013-05-16 12:13:00,
2013-05-16 12:23:00,45.0,30.0,-100.00,ENE,78,3.0,4.0,56,-99.99,,,-99.99,,2013-05-16 12:23:00,
2013-05-16 12:34:00,45.0,30.0,-100.00,East,90,2.0,4.0,55,-99.99,,,-99.99,,2013-05-16 12:34:00,
2013-05-16 12:45:00,45.0,31.0,-100.00,East,82,3.0,4.0,57,-99.99,,,-99.99,,2013-05-16 12:45:00,
2013-05-16 12:53:00,46.0,32.0,-100.00,SSE,162,3.0,6.0,57,-99.99,,,-99.99,,2013-05-16 12:53:00,
2013-05-16 13:04:00,46.0,32.0,-100.00,SSE,162,3.0,6.0,57,-99.99,,,-99.99,,2013-05-16 13:04:00,
2013-05-16 13:12:00,46.0,32.0,-100.00,SE,130,2.0,4.0,57,-99.99,,,-99.99,,2013-05-16 13:12:00,
2013-05-16 13:26:00,46.0,32.0,-100.00,East,79,3.0,5.0,57,-99.99,,,-99.99,,2013-05-16 13:26:00,
2013-05-16 13:35:00,46.0,32.0,-100.00,ENE,68,1.0,3.0,59,-99.99,,,-99.99,,2013-05-16 13:35:00,
2013-05-16 13:43:00,45.0,32.0,-100.00,East,82,2.0,3.0,59,-99.99,,,-99.99,,2013-05-16 13:43:00,
2013-05-16 13:55:00,45.0,32.0,-100.00,NE,37,3.0,5.0,59,-99.99,,,-99.99,,2013-05-16 13:55:00,
2013-05-16 14:05:00,47.0,33.0,-100.00,NE,56,4.0,6.0,57,-99.99,,,-99.99,,2013-05-16 14:05:00,
2013-05-16 14:15:00,47.0,33.0,-100.00,North,0,2.0,5.0,58,-99.99,,,-99.99,,2013-05-16 14:15:00,
2013-05-16 14:23:00,48.0,34.0,-100.00,WSW,253,3.0,7.0,57,-99.99,,,-99.99,,2013-05-16 14:23:00,
2013-05-16 14:37:00,48.0,34.0,-100.00,NNE,21,4.0,6.0,58,-99.99,,,-99.99,,2013-05-16 14:37:00,
2013-05-16 14:47:00,47.0,33.0,-100.00,North,6,4.0,7.0,59,-99.99,,,-99.99,,2013-05-16 14:47:00,
2013-05-16 14:55:00,47.0,34.0,-100.00,North,349,4.0,6.0,60,-99.99,,,-99.99,,2013-05-16 14:55:00,
2013-05-16 15:08:00,47.0,34.0,-100.00,North,3,4.0,6.0,61,-99.99,,,-99.99,,2013-05-16 15:08:00,
2013-05-16 15:17:00,46.0,33.0,-100.00,North,6,4.0,6.0,60,-99.99,,,-99.99,,2013-05-16 15:17:00,
2013-05-16 15:28:00,47.0,34.0,-100.00,NNW,344,4.0,7.0,60,-99.99,,,-99.99,,2013-05-16 15:28:00,
2013-05-16 15:40:00,46.0,34.0,-100.00,North,6,5.0,8.0,62,-99.99,,,-99.99,,2013-05-16 15:40:00,
2013-05-16 15:50:00,46.0,34.0,-100.00,NNE,14,5.0,11.0,63,-99.99,,,-99.99,,2013-05-16 15:50:00,
2013-05-16 16:00:00,46.0,34.0,-100.00,North,359,4.0,7.0,63,-99.99,,,-99.99,,2013-05-16 16:00:00,
2013-05-16 16:09:00,47.0,35.0,-100.00,North,352,4.0,11.0,63,-99.99,,,-99.99,,2013-05-16 16:09:00,
2013-05-16 16:11:00,47.0,35.0,-100.00,North,349,5.0,7.0,64,-99.99,,,-99.99,,2013-05-16 16:11:00,
2013-05-16 16:19:00,47.0,35.0,-100.00,NNW,337,5.0,11.0,63,-99.99,,,-99.99,,2013-05-16 16:19:00,
2013-05-16 16:30:00,47.0,35.0,-100.00,NNE,28,3.0,7.0,63,-99.99,,,-99.99,,2013-05-16 16:30:00,
2013-05-16 16:40:00,46.0,-99.9,-100.00,North,10,5.0,10.0,63,-99.99,,,-99.99,,2013-05-16 16:40:00,
2013-05-16 16:50:00,47.0,35.0,-100.00,North,349,5.0,7.0,64,-99.99,,,-99.99,,2013-05-16 16:50:00,
2013-05-16 17:00:00,47.0,35.0,-100.00,North,349,5.0,7.0,64,-99.99,,,-99.99,,2013-05-16 17:00:00,
2013-05-16 17:10:00,47.0,35.0,-100.00,North,349,5.0,7.0,64,-99.99,,,-99.99,,2013-05-16 17:10:00,
2013-05-16 18:50:00,-999.0,-99.9,-100.00,West,281,6.0,12.0,65,-99.99,,,-99.99,,2013-05-16 18:50:00,
2013-05-16 19:00:00,-999.0,-99.9,-100.00,West,272,8.0,13.0,66,-99.99,,,-99.99,,2013-05-16 19:00:00,
2013-05-16 19:10:00,48.0,37.0,-100.00,West,272,8.0,13.0,66,-99.99,,,-99.99,,2013-05-16 19:10:00,
2013-05-16 19:20:00,48.0,36.0,-100.00,West,271,8.0,13.0,63,-99.99,,,-99.99,,2013-05-16 19:20:00,
2013-05-16 19:30:00,48.0,37.0,-100.00,West,270,8.0,13.0,65,-99.99,,,-99.99,,2013-05-16 19:30:00,
2013-05-16 19:40:00,48.0,-99.9,-100.00,West,270,8.0,13.0,65,-99.99,,,-99.99,,2013-05-16 19:40:00,
2013-05-16 19:50:00,-999.0,-99.9,-100.00,West,281,8.0,14.0,65,-99.99,,,-99.99,,2013-05-16 19:50:00,
2013-05-16 20:00:00,49.0,-99.9,-100.00,NNW,337,3.0,5.0,65,-99.99,,,-99.99,,2013-05-16 20:00:00,
2013-05-16 20:10:00,-999.0,-99.9,-100.00,WNW,291,4.0,6.0,63,-99.99,,,-99.99,,2013-05-16 20:10:00,
2013-05-16 20:19:00,49.0,-99.9,-100.00,West,277,7.0,14.0,64,-99.99,,,-99.99,,2013-05-16 20:19:00,
2013-05-16 20:20:00,48.0,-99.9,-100.00,WNW,295,7.0,14.0,64,-99.99,,,-99.99,,2013-05-16 20:20:00,
2013-05-16 20:30:00,48.0,37.0,-100.00,WNW,287,6.0,12.0,66,-99.99,,,-99.99,,2013-05-16 20:30:00,
2013-05-16 20:40:00,-999.0,-99.9,-100.00,West,281,5.0,11.0,62,-99.99,,,-99.99,,2013-05-16 20:40:00,
2013-05-16 20:50:00,48.0,37.0,-100.00,WNW,282,6.0,10.0,66,-99.99,,,-99.99,,2013-05-16 20:50:00,
2013-05-16 21:00:00,49.0,37.0,-100.00,West,277,7.0,14.0,64,-99.99,,,-99.99,,2013-05-16 21:00:00,
2013-05-16 21:10:00,49.0,-99.9,-100.00,West,277,7.0,14.0,64,-99.99,,,-99.99,,2013-05-16 21:10:00,
2013-05-16 22:30:00,47.0,36.0,-100.00,WSW,254,7.0,13.0,65,-99.99,,,-99.99,,2013-05-16 22:30:00,
2013-05-16 22:40:00,48.0,37.0,-100.00,WNW,284,5.0,8.0,65,-99.99,,,-99.99,,2013-05-16 22:40:00,
2013-05-16 22:50:00,48.0,37.0,-100.00,WNW,284,5.0,8.0,65,-99.99,,,-99.99,,2013-05-16 22:50:00,
2013-05-16 23:00:00,47.0,38.0,-100.00,West,280,5.0,7.0,72,-99.99,,,-99.99,,2013-05-16 23:00:00,
2013-05-16 23:06:00,47.0,37.0,-100.00,WNW,284,4.0,6.0,69,-99.99,,,-99.99,,2013-05-16 23:06:00,
2013-05-16 23:16:00,47.0,38.0,-100.00,West,277,4.0,7.0,70,-99.99,,,-99.99,,2013-05-16 23:16:00,
2013-05-16 23:24:00,47.0,37.0,-100.00,West,280,5.0,8.0,69,-99.99,,,-99.99,,2013-05-16 23:24:00,
2013-05-16 23:34:00,46.0,38.0,-100.00,WNW,284,4.0,7.0,73,-99.99,,,-99.99,,2013-05-16 23:34:00,
2013-05-16 23:43:00,45.0,37.0,-100.00,WNW,282,5.0,7.0,74,-99.99,,,-99.99,,2013-05-16 23:43:00,
2013-05-16 23:45:00,47.0,38.0,-100.00,WNW,299,2.0,3.0,72,-99.99,,,-99.99,,2013-05-16 23:45:00,
2013-05-16 23:54:00,47.0,38.0,-100.00,WNW,289,4.0,6.0,71,-99.99,,,-99.99,,2013-05-16 23:54:00,